Погода в Рослятине

Россия / Вологодская область     59°45′56″N   44°13′31″E
темп.,
°C
ветер,
м/с
пор.,
м/с
влажн.,
%
обл.,
%
осадки,
мм/ч
давл.,
гПа
погр.,
м
22 апреля, чт
чт2200:00+2ююв51397100 0.8 1011770
03:00+2ююв41197100 1.7 1011733
06:00+2ю4898100 0.4 1012589
09:00+3ююз5995100 0.5 1014679
12:00+3ююз41196100 0.1 1015569
15:00+4ююз41096100 0.2 1016666
18:00+4ю498990 0.0 1016617
21:00+5ююз41084100 0.0 1017752
23 апреля, пт
пт2300:00+5ю41190100 0.0 1017449
03:00+5ю3119123 0.0 1018366
06:00+4ю4129028 0.0 1018357
09:00+8ююв5127883 0.0 1019589
12:00+11ююв696653 0.0 1018867
15:00+13ю596287 0.4 10171463
18:00+12ююв496877 0.5 1017822
21:00+9юв2490100 2.5 1018103
24 апреля, сб
сб2400:00+8юв4119183 0.3 1018332
03:00+6юв4119023 0.3 1017255
06:00+7юв41283100 0.0 1016344
09:00+11юв6116816 0.4 10141044
12:00+13юв795681 0.9 10121790
15:00+14юв694622 1.3 10102028
18:00+11юв6105812 0.0 10081396
21:00+8вюв5127689 0.0 1008700
25 апреля, вс
вс2500:00+7вюв51185100 0.0 1005679
03:00+6вюв51082100 0.0 1003706
06:00+6в41086100 0.0 1001581
09:00+6вюв4990100 0.1 1000882
12:00+7вюв3786100 0.1 9991167
15:00+4ю3594100 0.3 1000551
18:00+1зюз51296100 0.6 1001624
21:00+1зюз61397100 2.6 1002775
26 апреля, пн
пн2600:00+1юз51397100 2.2 1002676
03:00+1юз51397100 4.1 1002851
06:00+1юз61497100 1.5 1003702
09:00+2юз61389100 2.1 10031065
12:00+5зюз61278100 0.3 10041395
15:00+6зюз61171100 0.7 10041540
18:00+5зюз41075100 0.1 10041062
21:00+2юз41186100 0.1 1004421